W3EJE-13 Weather Reports


Display with metric or nautical units.
time (UTC)temp
F
wind
direction
speed
MPH
gust
MPH
rain 1hr
in
rain 24hr
in
rain mn
in
humidity
%
barometer
mb
20260508063521 37 224 0.0 0.0 0.00 0.00 0.00 89 1015.3
20260508063019 37 224 0.0 1.0 0.00 0.00 0.00 89 1015.3
20260508062517 37 230 0.0 1.0 0.00 0.00 0.00 89 1015.2
20260508062013 37 220 0.0 0.0 0.00 0.00 0.00 88 1015.3
20260508061512 37 232 0.0 0.0 0.00 0.00 0.00 88 1015.2
20260508061008 38 211 1.0 1.0 0.00 0.00 0.00 88 1015.1
20260508060505 38 231 0.0 0.0 0.00 0.00 0.00 87 1015.2
20260508060001 38 209 1.0 1.0 0.00 0.00 0.00 87 1015.2
20260508055458 38 204 1.0 1.0 0.00 0.00 0.00 87 1015.1
20260508054954 39 227 0.0 0.0 0.00 0.00 0.00 87 1015.2
20260508054451 39 221 0.0 1.0 0.00 0.00 0.00 86 1015.3
20260508053948 39 210 1.0 1.0 0.00 0.00 0.00 86 1015.2
20260508053445 39 230 0.0 0.0 0.00 0.00 0.00 85 1015.1
20260508052943 40 232 0.0 0.0 0.00 0.00 0.00 84 1015.1
20260508052440 40 188 1.0 2.0 0.00 0.00 0.00 83 1015.0
20260508051937 41 206 1.0 1.0 0.00 0.00 0.00 82 1015.2
20260508051432 41 216 1.0 1.0 0.00 0.00 0.00 80 1015.4
20260508050928 42 213 1.0 1.0 0.00 0.00 0.00 78 1015.3
20260508050425 42 221 0.0 0.0 0.00 0.00 0.00 76 1015.2
20260508045921 43 265 1.0 1.0 0.00 0.00 0.00 74 1015.3
20260508045419 43 264 1.0 1.0 0.00 0.00 0.00 74 1015.2
20260508044916 44 254 0.0 1.0 0.00 0.00 0.00 71 1015.1
20260508044414 44 253 0.0 0.0 0.00 0.00 0.00 70 1015.0
20260508043909 45 245 0.0 0.0 0.00 0.00 0.00 69 1014.9
20260508043406 45 253 1.0 2.0 0.00 0.00 0.00 69 1014.9
20260508042902 45 260 2.0 2.0 0.00 0.00 0.00 69 1014.9
20260508042401 45 357 2.0 3.0 0.00 0.00 0.00 68 1014.9
20260508041857 45 270 1.0 2.0 0.00 0.00 0.00 68 1015.2
20260508041353 46 284 4.0 5.0 0.00 0.00 0.00 68 1014.9
20260508040850 46 273 3.0 3.0 0.00 0.00 0.00 68 1015.0
20260508040347 46 262 4.0 5.0 0.00 0.00 0.00 67 1014.8
20260508035845 46 257 2.0 2.0 0.00 0.00 0.00 68 1014.8
20260508035342 46 271 2.0 3.0 0.00 0.00 0.00 68 1014.8
20260508034839 46 254 1.0 1.0 0.00 0.00 0.00 67 1014.8
20260508034336 47 282 3.0 3.0 0.00 0.00 0.00 67 1014.6
20260508033832 47 272 2.0 2.0 0.00 0.00 0.00 66 1014.5
20260508033331 46 314 4.0 5.0 0.00 0.00 0.00 67 1014.7
20260508032828 47 274 4.0 5.0 0.00 0.00 0.00 66 1014.7
20260508032325 47 269 2.0 2.0 0.00 0.00 0.00 66 1014.7
20260508031822 47 266 1.0 3.0 0.00 0.00 0.00 65 1014.5
20260508031319 48 306 5.0 6.0 0.00 0.00 0.00 65 1014.5
20260508030815 48 348 4.0 5.0 0.00 0.00 0.00 65 1014.4
20260508030313 48 288 5.0 6.0 0.00 0.00 0.00 65 1014.7
20260508025809 48 261 3.0 3.0 0.00 0.00 0.00 65 1014.5
20260508025306 48 289 5.0 7.0 0.00 0.00 0.00 64 1014.4
20260508024802 49 320 7.0 9.0 0.00 0.00 0.00 63 1014.4
20260508024259 49 315 5.0 8.0 0.00 0.00 0.00 63 1014.3
20260508023756 48 274 6.0 8.0 0.00 0.00 0.00 62 1014.5
20260508023253 49 260 3.0 5.0 0.00 0.00 0.00 62 1014.5
20260508022749 49 281 5.0 6.0 0.00 0.00 0.00 61 1014.1
20260508022246 49 35 8.0 9.0 0.00 0.00 0.00 62 1014.2
20260508021743 49 259 4.0 5.0 0.00 0.00 0.00 61 1014.1
20260508021238 49 283 4.0 5.0 0.00 0.00 0.00 60 1013.9
20260508020735 50 303 4.0 5.0 0.00 0.00 0.00 60 1013.8
20260508020233 50 252 4.0 5.0 0.00 0.00 0.00 60 1013.7
20260508015729 50 267 4.0 5.0 0.00 0.00 0.00 60 1013.6
20260508015227 50 279 3.0 3.0 0.00 0.00 0.00 60 1013.9
20260508014724 50 250 2.0 3.0 0.00 0.00 0.00 61 1013.6
20260508014220 50 254 2.0 2.0 0.00 0.00 0.00 62 1013.5
20260508013716 50 277 3.0 5.0 0.00 0.00 0.00 60 1013.7
20260508013212 50 276 2.0 2.0 0.00 0.00 0.00 62 1013.4
20260508012711 50 263 2.0 2.0 0.00 0.00 0.00 60 1013.4
20260508012207 50 266 1.0 2.0 0.00 0.00 0.00 60 1013.2
20260508011705 50 285 1.0 2.0 0.00 0.00 0.00 59 1013.1
20260508011203 50 260 2.0 2.0 0.00 0.00 0.00 59 1013.2
20260508010659 50 248 1.0 1.0 0.00 0.00 0.00 59 1013.1
20260508010157 50 255 0.0 1.0 0.00 0.00 0.00 60 1012.8
20260508005654 50 245 2.0 2.0 0.00 0.00 0.00 59 1012.8
20260508005150 51 253 1.0 1.0 0.00 0.00 0.00 59 1013.0
20260508004646 51 8 5.0 6.0 0.00 0.00 0.00 57 1012.9
20260508004143 51 338 5.0 6.0 0.00 0.00 0.00 56 1012.9
20260508003639 51 283 2.0 2.0 0.00 0.00 0.00 59 1012.7
20260508003137 51 275 2.0 3.0 0.00 0.00 0.00 58 1012.6
20260508002633 51 295 6.0 7.0 0.00 0.00 0.00 57 1012.6
20260508002131 52 324 5.0 6.0 0.00 0.00 0.00 56 1012.3
20260508001626 52 275 4.0 5.0 0.00 0.00 0.00 56 1012.6
20260508001122 52 264 6.0 7.0 0.00 0.00 0.00 55 1012.6
20260508000618 52 312 6.0 7.0 0.00 0.00 0.00 56 1012.5
20260508000116 53 259 5.0 6.0 0.00 0.00 0.00 56 1012.1
20260507235613 53 304 3.0 3.0 0.00 0.00 0.00 54 1012.1
20260507235110 53 288 4.0 5.0 0.00 0.00 0.00 56 1012.4
20260507234606 53 281 4.0 5.0 0.00 0.00 0.00 55 1012.0
20260507234103 54 273 3.0 3.0 0.00 0.00 0.00 54 1012.0
20260507233600 54 260 3.0 3.0 0.00 0.00 0.00 55 1012.0
20260507233059 53 302 4.0 6.0 0.00 0.00 0.00 54 1012.0
20260507232554 54 288 7.0 8.0 0.00 0.00 0.00 55 1012.0
20260507232052 55 350 10.0 15.0 0.00 0.00 0.00 53 1012.0
20260507231548 55 289 4.0 6.0 0.00 0.00 0.00 56 1011.8
20260507231045 55 300 5.0 7.0 0.00 0.00 0.00 53 1011.7
20260507230542 56 267 6.0 8.0 0.00 0.00 0.00 54 1011.6
20260507230038 55 35 9.0 13.0 0.00 0.00 0.00 53 1011.6
20260507225533 56 12 7.0 9.0 0.00 0.00 0.00 55 1011.8
20260507225030 55 249 3.0 3.0 0.00 0.00 0.00 53 1011.4
20260507224526 55 344 9.0 11.0 0.00 0.00 0.00 54 1011.4
20260507224022 55 278 9.0 11.0 0.00 0.00 0.00 55 1011.4
20260507223519 55 319 5.0 7.0 0.00 0.00 0.00 55 1011.5
20260507223016 55 24 9.0 11.0 0.00 0.00 0.00 54 1011.5
20260507222513 55 354 9.0 10.0 0.00 0.00 0.00 55 1011.5
20260507222009 55 266 4.0 5.0 0.00 0.00 0.00 57 1011.5
20260507221506 55 314 9.0 9.0 0.00 0.00 0.00 56 1011.5
20260507221003 55 306 7.0 8.0 0.00 0.00 0.00 58 1011.4
20260507220500 56 322 11.0 14.0 0.00 0.00 0.00 58 1011.3
20260507215956 55 317 4.0 7.0 0.00 0.00 0.00 56 1011.1
20260507215453 56 311 9.0 11.0 0.00 0.00 0.00 55 1011.1
20260507214951 55 284 5.0 6.0 0.00 0.00 0.00 59 1011.1
20260507214448 55 347 11.0 15.0 0.00 0.00 0.00 57 1011.3
20260507213943 56 351 14.0 17.0 0.00 0.00 0.00 53 1011.1
20260507213440 56 29 10.0 11.0 0.00 0.00 0.00 53 1011.2
20260507212937 57 283 6.0 8.0 0.00 0.00 0.00 53 1011.1
20260507212433 56 268 4.0 5.0 0.00 0.00 0.00 53 1011.2
20260507211930 56 268 5.0 6.0 0.00 0.00 0.00 53 1011.0
20260507211426 56 328 10.0 13.0 0.00 0.00 0.00 53 1011.2
20260507210923 56 357 13.0 15.0 0.00 0.00 0.00 53 1011.0
20260507210420 56 332 7.0 8.0 0.00 0.00 0.00 54 1011.0
20260507205917 57 9 9.0 13.0 0.00 0.00 0.00 54 1010.8
20260507205415 56 285 4.0 5.0 0.00 0.00 0.00 53 1011.1
20260507204910 56 281 8.0 10.0 0.00 0.00 0.00 54 1010.9
20260507204407 57 333 3.0 5.0 0.00 0.00 0.00 54 1011.1
20260507203905 57 281 5.0 5.0 0.00 0.00 0.00 55 1011.3
20260507203403 58 228 4.0 5.0 0.00 0.00 0.00 52 1010.9
20260507202858 56 355 14.0 18.0 0.00 0.00 0.00 55 1010.9
20260507202355 57 288 12.0 15.0 0.00 0.00 0.00 54 1011.2
20260507201850 57 348 13.0 16.0 0.00 0.00 0.00 55 1011.0
20260507201346 56 349 6.0 7.0 0.00 0.00 0.00 53 1011.0
20260507200843 57 264 5.0 7.0 0.00 0.00 0.00 53 1011.3
20260507200339 56 2 13.0 15.0 0.00 0.00 0.00 54 1011.5
20260507195835 56 318 4.0 6.0 0.00 0.00 0.00 56 1011.5
20260507195332 57 335 12.0 16.0 0.00 0.00 0.00 58 1011.5
20260507194830 56 312 12.0 15.0 0.00 0.00 0.00 55 1011.4
20260507194326 58 4 9.0 13.0 0.00 0.00 0.00 56 1011.6
20260507193822 59 358 10.0 11.0 0.00 0.00 0.00 54 1011.4
20260507193320 57 242 5.0 7.0 0.00 0.00 0.00 54 1011.5
20260507192815 59 273 5.0 7.0 0.00 0.00 0.00 50 1011.5
20260507192313 58 21 8.0 13.0 0.00 0.00 0.00 53 1011.6
20260507191809 58 318 7.0 8.0 0.00 0.00 0.00 54 1011.3
20260507191305 57 298 11.0 14.0 0.00 0.00 0.00 53 1011.2
20260507190802 57 12 12.0 14.0 0.00 0.00 0.00 55 1011.4
20260507190301 57 268 8.0 10.0 0.00 0.00 0.00 53 1011.6
20260507185759 57 291 11.0 14.0 0.00 0.00 0.00 57 1011.5
20260507185255 57 293 7.0 8.0 0.00 0.00 0.00 57 1011.5
20260507184753 58 294 11.0 13.0 0.00 0.00 0.00 52 1011.6
20260507184251 58 317 4.0 5.0 0.00 0.00 0.00 57 1011.9
20260507183747 57 279 8.0 10.0 0.00 0.00 0.00 52 1011.8
20260507183244 57 25 11.0 14.0 0.00 0.00 0.00 50 1011.9
20260507182742 58 39 2.0 3.0 0.00 0.00 0.00 52 1011.5
20260507182236 57 261 8.0 10.0 0.00 0.00 0.00 55 1011.5
20260507181733 56 286 9.0 10.0 0.00 0.00 0.00 52 1011.7
20260507181230 56 334 6.0 7.0 0.00 0.00 0.00 54 1011.5
20260507180726 57 321 5.0 7.0 0.00 0.00 0.00 52 1011.5
20260507180223 57 326 10.0 14.0 0.00 0.00 0.00 59 1011.5
20260507175719 56 277 3.0 3.0 0.00 0.00 0.00 54 1011.7
20260507175216 56 326 7.0 13.0 0.00 0.00 0.00 54 1012.0
20260507174714 57 312 8.0 9.0 0.00 0.00 0.00 58 1011.8
20260507174211 56 282 4.0 6.0 0.00 0.00 0.00 56 1012.0
20260507173709 56 302 11.0 13.0 0.00 0.00 0.00 56 1012.3
20260507173205 57 303 7.0 8.0 0.00 0.00 0.00 55 1012.3
20260507172702 57 5 6.0 7.0 0.00 0.00 0.00 56 1012.3
20260507172159 56 25 11.0 13.0 0.00 0.00 0.00 55 1012.3
20260507171658 58 258 0.0 0.0 0.00 0.00 0.00 55 1012.3
20260507171156 57 276 3.0 3.0 0.00 0.00 0.00 52 1012.3
20260507170653 55 287 4.0 6.0 0.00 0.00 0.00 55 1012.6
20260507170150 55 312 6.0 7.0 0.00 0.00 0.00 56 1012.4
20260507165646 55 14 3.0 5.0 0.00 0.00 0.00 56 1012.7
20260507165142 55 340 8.0 9.0 0.00 0.00 0.00 55 1012.6
20260507164638 57 355 8.0 9.0 0.00 0.00 0.00 54 1012.5
20260507164136 56 215 1.0 2.0 0.00 0.00 0.00 57 1012.7
20260507163633 55 231 2.0 2.0 0.00 0.00 0.00 52 1012.7
20260507163131 55 316 8.0 9.0 0.00 0.00 0.00 57 1013.0
20260507162626 54 3 9.0 10.0 0.00 0.00 0.00 60 1012.9
20260507162123 54 260 2.0 3.0 0.00 0.00 0.00 59 1012.7
20260507161619 55 255 4.0 5.0 0.00 0.00 0.00 54 1013.2
20260507161116 54 305 5.0 6.0 0.00 0.00 0.00 55 1013.2
20260507160612 54 175 5.0 6.0 0.00 0.00 0.00 54 1012.8
20260507160109 54 303 9.0 13.0 0.00 0.00 0.00 55 1013.2
20260507155604 55 258 3.0 3.0 0.00 0.00 0.00 55 1013.2
20260507155101 54 273 3.0 3.0 0.00 0.00 0.00 58 1012.9
20260507154558 53 279 3.0 3.0 0.00 0.00 0.00 56 1013.2
20260507154055 53 25 4.0 6.0 0.00 0.00 0.00 58 1013.4
20260507153552 53 305 10.0 11.0 0.00 0.00 0.00 57 1013.4
20260507153048 52 329 6.0 7.0 0.00 0.00 0.00 55 1013.5
20260507152544 52 294 3.0 6.0 0.00 0.00 0.00 56 1013.3
20260507152040 52 5 5.0 6.0 0.00 0.00 0.00 57 1013.4
20260507151536 53 251 2.0 3.0 0.00 0.00 0.00 54 1013.5
20260507151034 53 322 5.0 6.0 0.00 0.00 0.00 56 1013.4
20260507150530 52 228 1.0 1.0 0.00 0.00 0.00 57 1013.6
20260507150022 51 343 10.0 11.0 0.00 0.00 0.00 57 1013.7
20260507145516 51 321 5.0 7.0 0.00 0.00 0.00 57 1013.5
20260507145014 52 250 4.0 5.0 0.00 0.00 0.00 58 1013.8
20260507144511 52 274 7.0 8.0 0.00 0.00 0.00 58 1013.7
20260507144008 51 286 3.0 5.0 0.00 0.00 0.00 59 1014.1
20260507143505 51 302 6.0 7.0 0.00 0.00 0.00 62 1014.2
20260507143003 51 351 6.0 6.0 0.00 0.00 0.00 59 1014.1
20260507142458 51 304 4.0 5.0 0.00 0.00 0.00 64 1014.2
20260507141955 50 338 6.0 10.0 0.00 0.00 0.00 63 1014.2
20260507141451 50 261 2.0 2.0 0.00 0.00 0.00 62 1014.3
20260507140948 50 328 6.0 7.0 0.00 0.00 0.00 64 1014.5
20260507140444 49 293 5.0 5.0 0.00 0.00 0.00 61 1014.4
20260507135942 50 27 5.0 6.0 0.00 0.00 0.00 62 1014.6
20260507135438 49 328 4.0 5.0 0.00 0.00 0.00 64 1014.7
20260507134936 49 273 4.0 5.0 0.00 0.00 0.00 64 1014.7
20260507134432 49 261 3.0 3.0 0.00 0.00 0.00 64 1014.9
20260507133928 49 286 7.0 8.0 0.00 0.00 0.00 64 1014.8
20260507133424 49 285 4.0 5.0 0.00 0.00 0.00 66 1014.9
20260507132918 48 275 4.0 5.0 0.00 0.00 0.00 67 1014.8
20260507132413 49 319 4.0 5.0 0.00 0.00 0.00 65 1014.6
20260507131910 48 48 3.0 3.0 0.00 0.00 0.00 64 1014.9
20260507131407 48 268 2.0 2.0 0.00 0.00 0.00 66 1015.0
20260507130904 47 285 4.0 5.0 0.00 0.00 0.00 65 1014.9
20260507130401 47 4 3.0 5.0 0.00 0.00 0.00 65 1014.9
20260507125900 48 314 8.0 9.0 0.00 0.00 0.00 65 1014.8
20260507125357 47 341 4.0 5.0 0.00 0.00 0.00 66 1014.8
20260507124855 47 311 5.0 7.0 0.00 0.00 0.00 66 1014.9
20260507124350 47 290 4.0 5.0 0.00 0.00 0.00 67 1015.2
20260507123849 47 277 3.0 3.0 0.00 0.00 0.00 67 1014.9
20260507123346 47 252 2.0 2.0 0.00 0.00 0.00 67 1015.0
20260507122842 46 307 7.0 9.0 0.00 0.00 0.00 67 1014.8
20260507122337 46 338 2.0 3.0 0.00 0.00 0.00 68 1014.9
20260507121834 46 252 0.0 0.0 0.00 0.00 0.00 74 1014.9
20260507121330 45 253 1.0 1.0 0.00 0.00 0.00 74 1014.8
20260507120826 45 259 1.0 1.0 0.00 0.00 0.00 75 1015.0
20260507120323 45 258 1.0 2.0 0.00 0.00 0.00 73 1014.8
20260507115819 45 248 0.0 0.0 0.00 0.00 0.00 75 1014.8
20260507115315 44 263 2.0 2.0 0.00 0.00 0.00 74 1015.0
20260507114811 44 254 0.0 0.0 0.00 0.00 0.00 75 1014.9
20260507114308 44 261 0.0 0.0 0.00 0.00 0.00 77 1015.0
20260507113806 44 256 0.0 0.0 0.00 0.00 0.00 78 1014.7
20260507113302 44 256 0.0 0.0 0.00 0.00 0.00 78 1014.6
20260507112800 43 256 0.0 0.0 0.00 0.00 0.00 78 1014.8
20260507112257 43 256 0.0 0.0 0.00 0.00 0.00 79 1014.6
20260507111755 43 255 0.0 0.0 0.00 0.00 0.00 79 1014.4
20260507111251 44 255 0.0 0.0 0.00 0.00 0.00 79 1014.3
20260507110747 44 255 0.0 0.0 0.00 0.00 0.00 79 1014.3
20260507110244 44 255 0.0 0.0 0.00 0.00 0.00 79 1014.2
20260507105741 44 255 0.0 0.0 0.00 0.00 0.00 79 1014.4
20260507105236 44 255 0.0 0.0 0.00 0.00 0.00 79 1014.4
20260507104734 43 249 0.0 0.0 0.00 0.00 0.00 79 1014.3
20260507104231 44 233 0.0 0.0 0.00 0.00 0.00 79 1014.5
20260507103727 43 239 0.0 0.0 0.00 0.00 0.00 80 1014.1
20260507103223 43 240 0.0 0.0 0.00 0.00 0.00 80 1013.8
20260507102719 43 242 0.0 0.0 0.00 0.00 0.00 80 1014.2
20260507102216 43 242 0.0 0.0 0.00 0.00 0.00 80 1014.1
20260507101712 43 242 0.0 0.0 0.00 0.00 0.00 80 1013.9
20260507101207 43 248 0.0 0.0 0.00 0.00 0.00 79 1013.8
20260507100705 43 251 0.0 0.0 0.00 0.00 0.00 80 1013.8
20260507100203 43 253 0.0 0.0 0.00 0.00 0.00 79 1013.8
20260507095701 43 253 0.0 0.0 0.00 0.00 0.00 79 1013.9
20260507095157 43 252 0.0 0.0 0.00 0.00 0.00 79 1014.2
20260507094654 43 250 0.0 0.0 0.00 0.00 0.00 80 1014.1
20260507094150 44 256 0.0 0.0 0.00 0.00 0.00 81 1014.2
20260507093648 43 248 0.0 0.0 0.00 0.00 0.00 81 1014.1
20260507093147 43 245 0.0 0.0 0.00 0.00 0.00 82 1013.8
20260507092643 43 244 0.0 0.0 0.00 0.00 0.00 81 1013.8
20260507092139 44 253 0.0 0.0 0.00 0.00 0.00 81 1013.8
20260507091636 44 253 0.0 0.0 0.00 0.00 0.00 80 1013.9
20260507091132 44 264 1.0 1.0 0.00 0.00 0.00 79 1013.8
20260507090628 44 255 0.0 0.0 0.00 0.00 0.00 79 1013.8
20260507090126 44 245 0.0 0.0 0.00 0.00 0.00 80 1013.9
20260507085622 44 253 0.0 1.0 0.00 0.00 0.00 79 1013.6
20260507085119 44 252 1.0 1.0 0.00 0.00 0.00 80 1013.9
20260507084616 44 283 2.0 3.0 0.00 0.00 0.00 81 1013.7
20260507084113 44 318 3.0 3.0 0.00 0.00 0.00 81 1013.7
20260507083609 44 249 0.0 0.0 0.00 0.00 0.00 81 1014.1
20260507083107 44 259 1.0 1.0 0.00 0.00 0.00 82 1013.7
20260507082602 44 268 1.0 2.0 0.00 0.00 0.00 82 1013.8
20260507082059 44 255 2.0 2.0 0.00 0.00 0.00 81 1014.1
20260507081555 45 257 1.0 1.0 0.00 0.00 0.00 82 1013.9
20260507081052 45 262 2.0 2.0 0.00 0.00 0.00 83 1013.8
20260507080548 45 254 0.0 1.0 0.00 0.00 0.00 84 1013.7
20260507080045 45 263 1.0 2.0 0.00 0.00 0.00 83 1013.8
20260507075540 45 253 0.0 0.0 0.00 0.00 0.00 82 1013.7
20260507075036 45 259 0.0 0.0 0.00 0.00 0.00 81 1014.2
20260507074533 45 258 0.0 1.0 0.00 0.00 0.00 80 1014.2
20260507074032 45 256 0.0 0.0 0.00 0.00 0.00 79 1014.1
20260507073527 45 262 1.0 2.0 0.00 0.00 0.00 79 1013.9
20260507073024 45 259 0.0 1.0 0.00 0.00 0.00 80 1013.9
20260507072522 45 253 0.0 1.0 0.00 0.00 0.00 82 1013.8
20260507072019 45 270 1.0 1.0 0.00 0.00 0.00 82 1014.1
20260507071516 45 264 2.0 2.0 0.00 0.00 0.00 85 1014.1
20260507071012 45 251 0.0 0.0 0.00 0.00 0.00 87 1013.8
20260507070510 45 244 0.0 0.0 0.00 0.00 0.00 88 1013.9
20260507070010 46 253 0.0 0.0 0.00 0.00 0.00 89 1014.2
20260507065503 46 247 0.0 0.0 0.00 0.00 0.00 89 1013.8
20260507065000 45 254 1.0 1.0 0.00 0.00 0.00 89 1014.1
20260507064458 46 256 0.0 0.0 0.00 0.00 0.00 91 1014.1
20260507063956 46 253 0.0 0.0 0.00 0.00 0.00 91 1013.7